Location: Simi Valley
(34.2690°N, 118.7810°W)
Time: 11:25:43
(UTC-08:00)

SAR-Lupe-1 - Visible Passes

Search period start: 13 February 2016 00:00
Search period end: 23 February 2016 00:00
Orbit: 481 x 485 km, 98.2° (Epoch: 28 January)

Date Brightness Start Highest point End Pass type
(mag) Time Alt. Az. Time Alt. Az. Time Alt. Az.
13 Feb 5.9 05:08:16 10° NNE 05:11:32 33° E 05:14:48 10° SSE visible
14 Feb 7.3 04:44:17 10° ENE 04:46:28 15° E 04:48:38 10° SE visible
14 Feb 5.2 06:16:47 10° NNW 06:19:44 24° WNW 06:22:39 10° SW visible
15 Feb 4.1 05:51:22 10° N 05:54:53 54° WNW 05:58:22 10° SSW visible
16 Feb 4.6 05:26:22 10° NNE 05:29:55 60° ESE 05:33:27 10° S visible
17 Feb 6.4 05:01:50 10° NE 05:04:53 25° E 05:07:54 10° SSE visible
18 Feb 7.6 04:38:24 10° ENE 04:39:46 12° E 04:41:07 10° ESE visible
18 Feb 4.8 06:09:56 10° N 06:13:08 31° WNW 06:16:19 10° SW visible
19 Feb 3.9 05:44:38 10° N 05:48:14 74° WNW 05:51:48 10° SSW visible
20 Feb 5.3 05:19:47 10° NNE 05:23:14 44° E 05:26:40 10° S visible
21 Feb 6.9 04:55:28 10° NE 04:58:10 20° E 05:00:50 10° SE visible
22 Feb 4.5 06:03:05 10° N 06:06:28 40° WNW 06:09:50 10° SW visible
